TimeCDT,TemperatureF,Dew PointF,Humidity,Sea Level PressureIn,VisibilityMPH,Wind Direction,Wind SpeedMPH,Gust SpeedMPH,PrecipitationIn,Events,Conditions,WindDirDegrees,DateUTC
12:13 AM,24.8,19.4,80,29.41,2.5,West,16.1,24.2,0.00,Snow,Light Snow,270,2013-03-19 05:13:00
12:29 AM,23.0,17.6,80,29.41,3.0,West,16.1,23.0,0.00,Snow,Light Snow,270,2013-03-19 05:29:00
3:54 AM,18.0,12.9,81,29.48,4.0,West,11.5,18.4,0.00,Snow,Light Snow,280,2013-03-19 08:54:00
4:54 AM,18.0,12.0,78,29.48,10.0,West,12.7,17.3,0.00,,Overcast,280,2013-03-19 09:54:00
5:38 AM,17.6,12.2,79,29.43,2.5,West,12.7,20.7,0.00,Snow,Light Snow,280,2013-03-19 10:38:00
5:54 AM,18.0,12.9,81,29.49,2.5,West,10.4,20.7,0.00,Snow,Light Snow,280,2013-03-19 10:54:00
6:05 AM,17.6,12.2,79,29.44,4.0,West,10.4,-,0.00,Snow,Light Snow,280,2013-03-19 11:05:00
6:54 AM,19.0,12.0,74,29.52,7.0,West,11.5,19.6,0.00,Snow,Light Snow,280,2013-03-19 11:54:00
7:54 AM,18.0,10.9,74,29.55,4.0,WNW,13.8,26.5,0.00,Snow,Light Snow,290,2013-03-19 12:54:00
8:54 AM,19.0,10.0,68,29.57,10.0,West,16.1,24.2,0.00,,Mostly Cloudy,280,2013-03-19 13:54:00
9:52 AM,19.4,10.4,68,29.53,8.0,WNW,15.0,29.9,0.00,,Mostly Cloudy,290,2013-03-19 14:52:00
9:54 AM,19.9,10.9,68,29.59,8.0,WNW,19.6,29.9,0.00,,Mostly Cloudy,290,2013-03-19 14:54:00
10:19 AM,21.2,10.4,63,29.54,10.0,West,23.0,29.9,0.00,,Mostly Cloudy,280,2013-03-19 15:19:00
10:28 AM,21.2,10.4,63,29.55,9.0,WNW,19.6,29.9,0.00,,Mostly Cloudy,290,2013-03-19 15:28:00
10:54 AM,19.9,10.0,65,29.62,9.0,WNW,23.0,31.1,0.00,,Overcast,300,2013-03-19 15:54:00
11:45 AM,21.2,10.4,63,29.58,10.0,WNW,18.4,27.6,N/A,,Overcast,290,2013-03-19 16:45:00
11:54 AM,21.9,10.9,63,29.64,10.0,West,18.4,29.9,N/A,,Overcast,280,2013-03-19 16:54:00
12:26 PM,23.0,10.4,59,29.59,2.5,WNW,20.7,29.9,N/A,,Haze,290,2013-03-19 17:26:00
12:35 PM,23.0,10.4,59,29.60,4.0,WNW,12.7,25.3,N/A,,Haze,300,2013-03-19 17:35:00
1:54 PM,26.1,12.0,55,29.68,10.0,WNW,19.6,31.1,N/A,,Mostly Cloudy,300,2013-03-19 18:54:00
2:54 PM,26.1,12.9,58,29.71,10.0,NW,21.9,32.2,N/A,,Mostly Cloudy,310,2013-03-19 19:54:00
3:54 PM,25.0,12.0,58,29.74,10.0,WNW,16.1,27.6,N/A,,Overcast,290,2013-03-19 20:54:00
4:54 PM,25.0,12.0,58,29.78,10.0,WNW,20.7,33.4,N/A,,Overcast,290,2013-03-19 21:54:00
5:54 PM,25.0,12.9,60,29.81,10.0,WNW,16.1,21.9,N/A,,Overcast,300,2013-03-19 22:54:00
6:54 PM,25.0,10.0,53,29.83,10.0,NW,11.5,29.9,N/A,,Overcast,310,2013-03-19 23:54:00
7:54 PM,23.0,9.0,55,29.86,10.0,WNW,12.7,-,N/A,,Partly Cloudy,300,2013-03-20 00:54:00
8:54 PM,21.0,6.1,53,29.87,10.0,WNW,18.4,25.3,N/A,,Clear,300,2013-03-20 01:54:00
9:54 PM,19.9,6.1,55,29.88,10.0,WNW,11.5,20.7,N/A,,Clear,290,2013-03-20 02:54:00
10:54 PM,19.0,8.1,62,29.87,10.0,WNW,13.8,23.0,N/A,,Scattered Clouds,290,2013-03-20 03:54:00
11:18 PM,19.4,8.6,63,29.81,10.0,WNW,10.4,-,N/A,,Mostly Cloudy,290,2013-03-20 04:18:00
11:54 PM,18.0,10.9,74,29.87,5.0,WNW,12.7,21.9,0.00,Snow,Light Snow,290,2013-03-20 04:54:00